Date String (YYYY-MM-DD hh:mm:ss) UTC,Instrument flags,Ambient pressure (hPa),Sample flow (lpm),Bypass flow (lpm),Sample temperature (°C),Ambient temperature (°C),ASC tube jacket temperature (°C),LED temperature (°C),Box temperature (°C),Sample RH (%),Span deviation,Mass concentration (μg/m³),Mass concentration (μg/m³),Mass concentration (μg/m³)
DateTimeUTC,F1_M11,P_M11,Q1_M11,Q2_M11,T1_M11,T2_M11,T3_M11,T4_M11,T5_M11,U1_M11,ZSPAN_M11,X0_M11,X2_M11,X1_M11
2022-08-13 03:00:00,,0829.3,4.99,0.00,29.2,27.2,00.0,37.9,30.9,26.4,0000.0,0020.58,0005.87,0004.36
2022-08-13 03:01:00,,0829.3,5.00,0.00,29.2,27.0,00.0,37.9,30.9,26.4,0000.0,0020.64,0005.75,0004.34
2022-08-13 03:02:00,,0829.3,4.99,0.00,29.1,27.0,00.0,37.9,30.8,26.6,0000.0,0019.97,0005.73,0004.32
2022-08-13 03:03:00,,0829.3,5.01,0.00,29.0,27.2,00.0,37.8,30.8,26.7,0000.0,0019.87,0005.74,0004.31
2022-08-13 03:04:00,,0829.4,5.00,0.00,29.0,27.4,00.0,37.8,30.8,26.8,0000.0,0019.86,0005.70,0004.30
2022-08-13 03:05:00,,0829.4,5.01,0.00,29.1,27.6,00.0,37.8,30.9,26.8,0000.0,0019.96,0005.62,0004.29
2022-08-13 03:06:00,,0829.4,5.01,0.00,29.1,27.8,00.0,37.9,31.0,26.7,0000.0,0020.83,0005.62,0004.27
2022-08-13 03:07:00,,0829.4,5.00,0.00,29.1,27.9,00.0,37.9,31.1,26.6,0000.0,0020.84,0005.55,0004.26
2022-08-13 03:08:00,,0829.4,4.99,0.00,29.2,28.1,00.0,37.9,31.2,26.5,0000.0,0019.65,0005.45,0004.26
2022-08-13 03:09:00,,0829.4,5.00,0.00,29.2,28.3,00.0,37.9,31.2,26.3,0000.0,0018.66,0005.38,0004.25
2022-08-13 03:10:00,,0829.5,5.00,0.00,29.3,28.4,00.0,37.9,31.3,26.3,0000.0,0017.92,0005.36,0004.25
2022-08-13 03:11:00,,0829.5,4.99,0.00,29.3,28.4,00.0,38.0,31.3,26.1,0000.0,0017.00,0005.39,0004.25
2022-08-13 03:12:00,,0829.5,5.00,0.00,29.3,27.7,00.0,37.9,31.1,26.1,0000.0,0016.28,0005.42,0004.26
2022-08-13 03:13:00,,0829.5,5.00,0.00,29.2,27.1,00.0,37.9,30.9,26.1,0000.0,0015.53,0005.36,0004.26
2022-08-13 03:14:00,,0829.5,5.01,0.00,29.1,26.9,00.0,37.9,30.8,26.1,0000.0,0015.80,0005.36,0004.25
2022-08-13 03:15:00,,0829.5,5.00,0.00,29.0,27.0,00.0,37.9,30.7,26.2,0000.0,0016.17,0005.37,0004.26
2022-08-13 03:16:00,,0829.5,4.99,0.00,29.0,27.2,00.0,37.8,30.8,26.3,0000.0,0016.40,0005.36,0004.24
2022-08-13 03:17:00,,0829.5,4.99,0.00,29.0,27.4,00.0,37.8,30.8,26.4,0000.0,0015.69,0005.34,0004.23
2022-08-13 03:18:00,,0829.5,5.00,0.00,29.1,27.6,00.0,37.8,30.9,26.3,0000.0,0015.38,0005.33,0004.21
2022-08-13 03:19:00,,0829.5,5.00,0.00,29.1,27.8,00.0,37.9,31.0,26.3,0000.0,0015.07,0005.32,0004.20
2022-08-13 03:20:00,,0829.5,4.99,0.00,29.1,28.0,00.0,37.9,31.1,26.3,0000.0,0014.38,0005.32,0004.18
2022-08-13 03:21:00,,0829.5,5.01,0.00,29.2,28.1,00.0,37.9,31.2,26.2,0000.0,0014.02,0005.30,0004.16
2022-08-13 03:22:00,,0829.5,5.00,0.00,29.2,28.3,00.0,37.9,31.2,26.1,0000.0,0014.75,0005.30,0004.14
2022-08-13 03:23:00,,0829.5,4.99,0.00,29.3,28.4,00.0,37.9,31.3,26.0,0000.0,0015.10,0005.27,0004.13
2022-08-13 03:24:00,,0829.4,5.01,0.00,29.3,27.8,00.0,37.9,31.1,26.0,0000.0,0015.36,0005.30,0004.12
2022-08-13 03:25:00,,0829.5,4.99,0.00,29.2,27.2,00.0,37.9,30.9,26.1,0000.0,0014.90,0005.29,0004.11
2022-08-13 03:26:00,,0829.5,4.99,0.00,29.1,27.0,00.0,37.9,30.8,26.1,0000.0,0014.67,0005.26,0004.11
2022-08-13 03:27:00,,0829.5,5.01,0.00,29.1,27.0,00.0,37.8,30.7,26.2,0000.0,0014.64,0005.28,0004.10
2022-08-13 03:28:00,,0829.5,4.99,0.00,29.0,27.1,00.0,37.8,30.8,26.5,0000.0,0014.45,0005.26,0004.10
2022-08-13 03:29:00,,0829.5,5.00,0.00,29.0,27.3,00.0,37.8,30.8,26.3,0000.0,0014.14,0005.23,0004.10
2022-08-13 03:30:00,,0829.5,5.00,0.00,29.0,27.5,00.0,37.8,30.9,25.9,0000.0,0014.41,0005.26,0004.11
2022-08-13 03:31:00,,0829.5,4.99,0.00,29.1,27.7,00.0,37.8,31.0,26.0,0000.0,0014.68,0005.26,0004.10
2022-08-13 03:32:00,,0829.5,5.00,0.00,29.1,27.9,00.0,37.9,31.1,26.1,0000.0,0014.05,0005.23,0004.11
2022-08-13 03:33:00,,0829.5,4.99,0.00,29.1,28.0,00.0,37.9,31.1,26.0,0000.0,0013.68,0005.23,0004.12
2022-08-13 03:34:00,,0829.5,5.00,0.00,29.2,28.2,00.0,37.9,31.2,26.0,0000.0,0014.14,0005.28,0004.11
2022-08-13 03:35:00,,0829.5,5.01,0.00,29.2,28.3,00.0,37.9,31.3,26.0,0000.0,0013.30,0005.26,0004.12
2022-08-13 03:36:00,,0829.5,5.01,0.00,29.3,28.4,00.0,37.9,31.3,25.8,0000.0,0012.52,0005.21,0004.13
2022-08-13 03:37:00,,0829.5,5.00,0.00,29.3,28.1,00.0,37.9,31.2,25.8,0000.0,0012.43,0005.26,0004.13
2022-08-13 03:38:00,,0829.5,5.00,0.00,29.2,27.4,00.0,37.9,31.0,25.9,0000.0,0011.99,0005.27,0004.14
2022-08-13 03:39:00,,0829.5,5.01,0.00,29.2,27.0,00.0,37.9,30.8,26.2,0000.0,0011.96,0005.28,0004.15
2022-08-13 03:40:00,,0829.4,4.99,0.00,29.1,26.9,00.0,37.8,30.7,26.4,0000.0,0012.82,0005.32,0004.15
2022-08-13 03:41:00,,0829.5,4.99,0.00,29.0,27.0,00.0,37.8,30.7,26.6,0000.0,0012.68,0005.28,0004.14
2022-08-13 03:42:00,,0829.5,5.01,0.00,29.0,27.2,00.0,37.8,30.8,26.5,0000.0,0012.67,0005.31,0004.15
2022-08-13 03:43:00,,0829.5,4.99,0.00,29.0,27.4,00.0,37.8,30.9,26.3,0000.0,0013.98,0005.34,0004.14
2022-08-13 03:44:00,,0829.4,5.00,0.00,29.0,27.6,00.0,37.8,30.9,26.4,0000.0,0013.67,0005.31,0004.14
2022-08-13 03:45:00,,0829.5,5.00,0.00,29.1,27.8,00.0,37.9,31.0,26.5,0000.0,0013.02,0005.31,0004.16
2022-08-13 03:46:00,,0829.5,5.00,0.00,29.1,28.0,00.0,37.9,31.1,26.3,0000.0,0013.76,0005.33,0004.18
2022-08-13 03:47:00,,0829.5,5.00,0.00,29.2,28.1,00.0,37.9,31.1,26.1,0000.0,0014.13,0005.33,0004.20
2022-08-13 03:48:00,,0829.5,5.00,0.00,29.2,28.3,00.0,37.9,31.2,25.6,0000.0,0013.80,0005.28,0004.20
2022-08-13 03:49:00,,0829.5,5.00,0.00,29.2,28.4,00.0,37.9,31.2,25.6,0000.0,0014.38,0005.29,0004.21
2022-08-13 03:50:00,,0829.6,5.00,0.00,29.3,28.5,00.0,38.0,31.3,25.5,0000.0,0016.82,0005.31,0004.21
2022-08-13 03:51:00,,0829.5,5.00,0.00,29.3,28.0,00.0,37.9,31.1,25.6,0000.0,0016.50,0005.32,0004.23
2022-08-13 03:52:00,,0829.5,5.01,0.00,29.2,27.3,00.0,37.9,30.9,25.7,0000.0,0017.63,0005.37,0004.25
2022-08-13 03:53:00,,0829.5,5.00,0.00,29.2,26.9,00.0,37.9,30.9,25.6,0000.0,0019.37,0005.37,0004.27
2022-08-13 03:54:00,,0829.5,4.99,0.00,29.1,26.9,00.0,37.9,30.8,25.8,0000.0,0018.81,0005.38,0004.30
2022-08-13 03:55:00,,0829.5,5.02,0.00,29.0,27.0,00.0,37.9,30.8,25.9,0000.0,0018.84,0005.40,0004.31
2022-08-13 03:56:00,,0829.5,4.99,0.00,29.0,27.2,00.0,37.8,30.8,26.0,0000.0,0019.02,0005.39,0004.32
2022-08-13 03:57:00,,0829.5,5.01,0.00,29.0,27.4,00.0,37.8,30.9,25.9,0000.0,0019.35,0005.42,0004.31
2022-08-13 03:58:00,,0829.4,5.00,0.00,29.1,27.6,00.0,37.9,31.0,25.8,0000.0,0019.89,0005.45,0004.31
2022-08-13 03:59:00,,0829.5,5.00,0.00,29.1,27.8,00.0,37.9,31.0,25.7,0000.0,0020.28,0005.48,0004.31
